User: anonymous   Login
Location: Unspecified
(0.0000°N, 0.0000°E)
Time: 04:32:43
(UTC+00:00)
Language:

STARLINK-35329 - Orbit

View from above orbital plane
View from above orbital plane
View from above satellite
View from above satellite

Ground track
Ground track

The orbit is defined by the following mean orbital elements,

1 65908U          26145.34447128 +.00000000 +00000-0 +54561-3 0 00006
2 65908  53.1595  14.3545 0001381  91.0083 269.1077 15.34410587    04
Epoch (UTC): 25 May 2026 08:16:02
Eccentricity: 0.0001381
inclination: 53.1595°
perigee height: 462 km
apogee height: 464 km
right ascension of ascending node: 14.3545°
argument of perigee: 91.0083°
revolutions per day: 15.34410587
mean anomaly at epoch: 269.1077°

The dashed part of the orbit path shows where the satellite is in the earth's shadow,  

DLR